TimeCST,TemperatureF,Dew PointF,Humidity,Sea Level PressureIn,VisibilityMPH,Wind Direction,Wind SpeedMPH,Gust SpeedMPH,PrecipitationIn,Events,Conditions,WindDirDegrees,DateUTC
12:54 AM,21.0,6.1,53,30.30,10.0,WSW,4.6,-,N/A,,Clear,240,2011-11-17 06:54:00
1:54 AM,21.0,7.0,55,30.29,10.0,WSW,10.4,-,N/A,,Clear,240,2011-11-17 07:54:00
2:54 AM,23.0,9.0,55,30.28,10.0,WSW,10.4,-,N/A,,Clear,240,2011-11-17 08:54:00
4:54 AM,24.1,10.0,55,30.27,10.0,WSW,10.4,-,N/A,,Clear,250,2011-11-17 10:54:00
6:54 AM,21.9,14.0,72,30.26,10.0,SW,9.2,-,N/A,,Clear,230,2011-11-17 12:54:00
7:54 AM,23.0,15.1,72,30.26,10.0,SW,10.4,-,N/A,,Clear,230,2011-11-17 13:54:00
8:54 AM,28.0,17.1,63,30.27,10.0,SW,13.8,-,N/A,,Clear,230,2011-11-17 14:54:00
9:54 AM,34.0,18.0,52,30.26,10.0,Calm,Calm,-,N/A,,Clear,0,2011-11-17 15:54:00
11:54 AM,44.1,15.1,31,30.18,10.0,South,15.0,-,N/A,,Clear,190,2011-11-17 17:54:00
12:54 PM,46.9,15.1,28,30.12,10.0,North,-9999.0,-,N/A,,Clear,0,2011-11-17 18:54:00
2:54 PM,50.0,17.1,27,30.04,10.0,South,19.6,-,N/A,,Clear,190,2011-11-17 20:54:00
3:54 PM,48.9,15.1,26,30.01,10.0,South,21.9,31.1,N/A,,Clear,180,2011-11-17 21:54:00
4:54 PM,45.0,18.0,34,29.99,10.0,South,16.1,-,N/A,,Clear,170,2011-11-17 22:54:00
5:54 PM,43.0,18.0,37,29.96,10.0,South,17.3,-,N/A,,Clear,170,2011-11-17 23:54:00
6:54 PM,42.1,21.0,43,29.96,10.0,South,16.1,-,N/A,,Clear,170,2011-11-18 00:54:00
7:54 PM,41.0,23.0,49,29.94,10.0,South,19.6,-,N/A,,Clear,180,2011-11-18 01:54:00
8:54 PM,41.0,21.9,47,29.91,10.0,South,20.7,29.9,N/A,,Clear,180,2011-11-18 02:54:00
9:54 PM,39.9,23.0,51,29.88,10.0,South,21.9,29.9,N/A,,Clear,180,2011-11-18 03:54:00
10:54 PM,39.9,23.0,51,29.86,10.0,South,21.9,27.6,N/A,,Clear,180,2011-11-18 04:54:00
11:54 PM,39.9,23.0,51,29.83,10.0,South,18.4,-,N/A,,Clear,180,2011-11-18 05:54:00